GW1031 Weather Reports


Display with metric or nautical units.
time (UTC)temp
F
wind
direction
speed
MPH
gust
MPH
rain 1hr
in
rain 24hr
in
rain mn
in
humidity
%
barometer
mb
20260504204412 67 241 2.0 2.0 0.00 0.03 0.03 34 1013.4
20260504203911 68 187 1.0 2.0 0.00 0.03 0.03 35 1013.2
20260504203408 68 236 1.0 2.0 0.00 0.03 0.03 33 1013.2
20260504202903 67 299 1.0 1.0 0.00 0.03 0.03 33 1013.2
20260504202401 67 183 2.0 3.0 0.00 0.03 0.03 33 1013.6
20260504201857 68 258 2.0 3.0 0.00 0.03 0.03 34 1013.6
20260504201355 66 73 1.0 1.0 0.00 0.03 0.03 34 1013.5
20260504200852 65 237 5.0 5.0 0.00 0.03 0.03 35 1013.5
20260504200348 67 289 2.0 2.0 0.00 0.03 0.03 34 1013.6
20260504195845 67 114 1.0 2.0 0.00 0.03 0.03 34 1013.8
20260504195340 66 177 1.0 2.0 0.00 0.03 0.03 33 1013.6
20260504194838 66 4 2.0 2.0 0.00 0.03 0.03 33 1013.5
20260504194333 67 175 2.0 2.0 0.00 0.03 0.03 35 1013.6
20260504193829 66 100 3.0 3.0 0.00 0.03 0.03 35 1013.6
20260504193327 66 65 1.0 1.0 0.00 0.03 0.03 37 1013.6
20260504192826 66 182 3.0 3.0 0.00 0.03 0.03 34 1013.8
20260504192323 66 194 1.0 1.0 0.00 0.03 0.03 34 1013.8
20260504191822 67 143 0.0 1.0 0.00 0.03 0.03 36 1013.8
20260504191319 67 295 1.0 2.0 0.00 0.03 0.03 37 1013.7
20260504190814 65 116 1.0 2.0 0.00 0.03 0.03 37 1013.8
20260504190310 65 109 1.0 1.0 0.00 0.03 0.03 38 1013.8
20260504185807 65 258 3.0 3.0 0.00 0.03 0.03 37 1014.2
20260504185305 65 171 3.0 5.0 0.00 0.03 0.03 38 1014.3
20260504184800 66 242 2.0 2.0 0.00 0.03 0.03 39 1014.1
20260504184256 66 264 3.0 5.0 0.00 0.03 0.03 40 1014.1
20260504183752 65 263 2.0 2.0 0.00 0.03 0.03 39 1014.0
20260504183249 64 118 1.0 2.0 0.00 0.03 0.03 40 1014.3
20260504182747 64 124 3.0 3.0 0.00 0.03 0.03 39 1014.5
20260504182244 65 238 1.0 1.0 0.00 0.03 0.03 40 1014.1
20260504181742 65 256 2.0 2.0 0.00 0.03 0.03 42 1014.5
20260504181239 64 240 1.0 2.0 0.00 0.03 0.03 41 1014.7
20260504180738 64 132 1.0 2.0 0.00 0.03 0.03 41 1014.9
20260504180236 64 255 2.0 3.0 0.00 0.03 0.03 42 1014.8
20260504175733 64 110 0.0 0.0 0.00 0.03 0.03 46 1014.6
20260504175230 63 151 0.0 1.0 0.00 0.03 0.03 43 1014.8
20260504174728 63 313 1.0 2.0 0.00 0.03 0.03 45 1014.7
20260504174226 64 294 3.0 3.0 0.00 0.03 0.03 41 1014.7
20260504173722 63 141 1.0 1.0 0.00 0.03 0.03 42 1014.7
20260504173219 62 328 2.0 2.0 0.00 0.03 0.03 44 1014.8
20260504172715 63 170 2.0 2.0 0.00 0.03 0.03 42 1015.1
20260504172212 63 261 1.0 1.0 0.00 0.03 0.03 44 1014.9
20260504171709 62 260 2.0 2.0 0.00 0.03 0.03 44 1014.9
20260504171206 60 86 1.0 2.0 0.00 0.03 0.03 50 1014.9
20260504170702 60 125 3.0 3.0 0.00 0.03 0.03 50 1014.9
20260504170200 60 137 0.0 0.0 0.00 0.03 0.03 55 1014.9
20260504160118 55 93 0.0 1.0 0.00 0.03 0.03 67 1015.7
20260504151045 52 136 0.0 0.0 0.00 0.03 0.03 71 1016.0
20260504150543 53 115 0.0 1.0 0.00 0.03 0.03 73 1016.3
20260504141008 49 128 0.0 0.0 0.00 0.03 0.03 84 1016.5
20260504140505 48 123 0.0 0.0 0.00 0.03 0.03 85 1016.5
20260504130430 44 128 0.0 0.0 0.00 0.03 0.03 94 1016.2
20260504110317 44 194 0.0 0.0 0.00 0.03 0.03 93 1016.2
20260504100235 45 186 0.0 0.0 0.05 0.03 0.03 92 1016.7
20260504081628 49 151 0.0 0.0 0.00 0.00 0.00 73 1016.2
20260504081124 49 104 0.0 0.0 0.00 0.00 0.00 73 1016.2
20260504080621 49 125 0.0 0.0 0.00 0.00 0.00 73 1016.3
20260504080117 49 105 0.0 0.0 0.00 0.00 0.00 75 1016.4
20260504050433 59 248 3.0 5.0 0.00 0.00 0.00 39 1017.3
20260504045930 58 38 3.0 3.0 0.00 0.00 0.00 40 1017.1
20260504045426 58 287 0.0 1.0 0.00 0.00 0.00 40 1016.9
20260504044922 58 71 0.0 0.0 0.00 0.00 0.00 40 1016.8
20260504044420 56 37 1.0 2.0 0.00 0.00 0.00 41 1016.8
20260504043917 55 110 1.0 1.0 0.00 0.00 0.00 41 1016.7
20260504043414 55 48 2.0 2.0 0.00 0.00 0.00 43 1016.4
20260504042912 54 146 0.0 0.0 0.00 0.00 0.00 47 1016.5
20260504042408 55 233 0.0 0.0 0.00 0.00 0.00 49 1016.2
20260504041904 54 130 0.0 0.0 0.00 0.00 0.00 43 1015.9
20260504041401 54 195 0.0 0.0 0.00 0.00 0.00 46 1015.8
20260504040856 54 123 0.0 0.0 0.00 0.00 0.00 46 1016.2
20260504040354 54 124 0.0 0.0 0.00 0.00 0.00 46 1016.2
20260504035850 53 246 0.0 0.0 0.00 0.00 0.00 45 1015.8
20260504035348 54 217 0.0 0.0 0.00 0.00 0.00 49 1016.3
20260504034844 54 146 0.0 0.0 0.00 0.00 0.00 46 1015.8
20260504034342 54 97 1.0 1.0 0.00 0.00 0.00 45 1015.7
20260504033839 53 126 0.0 0.0 0.00 0.00 0.00 52 1016.0
20260504033337 52 162 0.0 1.0 0.00 0.00 0.00 51 1015.6
20260504032833 52 148 0.0 0.0 0.00 0.00 0.00 57 1015.6
20260504032330 52 178 0.0 0.0 0.00 0.00 0.00 49 1015.4
20260504031827 52 131 0.0 0.0 0.00 0.00 0.00 59 1015.2
20260504031324 52 185 0.0 0.0 0.00 0.00 0.00 51 1015.2
20260504030820 52 193 0.0 0.0 0.00 0.00 0.00 49 1015.2
20260504030318 52 159 0.0 0.0 0.00 0.00 0.00 56 1014.9
20260504025814 52 154 0.0 0.0 0.00 0.00 0.00 56 1014.9
20260504025311 51 172 0.0 0.0 0.00 0.00 0.00 51 1014.9
20260504024808 52 174 0.0 0.0 0.00 0.00 0.00 54 1014.8
20260504024304 52 209 0.0 0.0 0.00 0.00 0.00 56 1015.1
20260504023801 52 181 0.0 0.0 0.00 0.00 0.00 51 1014.9
20260504023257 52 142 0.0 0.0 0.00 0.00 0.00 47 1014.7
20260504022754 52 151 0.0 0.0 0.00 0.00 0.00 53 1014.8
20260504022250 53 153 0.0 0.0 0.00 0.00 0.00 48 1014.6
20260504021747 54 153 0.0 0.0 0.00 0.00 0.00 48 1014.5
20260504021245 55 142 0.0 0.0 0.00 0.00 0.00 46 1014.8
20260504020741 56 120 0.0 0.0 0.00 0.00 0.00 47 1014.7
20260504020237 58 191 0.0 0.0 0.00 0.00 0.00 38 1014.5
20260504015734 59 217 0.0 0.0 0.00 0.00 0.00 36 1014.5
20260504015231 60 172 0.0 0.0 0.00 0.00 0.00 35 1014.6
20260504014726 60 166 0.0 0.0 0.00 0.00 0.00 33 1014.6
20260504014223 61 199 0.0 0.0 0.00 0.00 0.00 32 1014.3
20260504013721 62 200 0.0 0.0 0.00 0.00 0.00 32 1014.2
20260504013218 62 203 0.0 0.0 0.00 0.00 0.00 30 1014.6
20260504012714 63 215 0.0 0.0 0.00 0.00 0.00 29 1014.5
20260504012213 64 201 0.0 0.0 0.00 0.00 0.00 27 1014.3
20260504011709 64 183 0.0 0.0 0.00 0.00 0.00 27 1014.2
20260504011206 65 219 0.0 0.0 0.00 0.00 0.00 26 1014.6
20260504010702 66 209 0.0 0.0 0.00 0.00 0.00 24 1014.3
20260504010157 67 236 1.0 2.0 0.00 0.00 0.00 23 1014.2
20260504005654 67 259 0.0 1.0 0.00 0.00 0.00 24 1014.3
20260504005151 68 221 0.0 0.0 0.00 0.00 0.00 22 1014.2
20260504004649 68 281 0.0 1.0 0.00 0.00 0.00 22 1014.3
20260504004146 68 187 1.0 1.0 0.00 0.00 0.00 21 1014.5
20260504003642 70 223 1.0 1.0 0.00 0.00 0.00 20 1014.3
20260504003139 72 139 0.0 0.0 0.00 0.00 0.00 22 1014.6
20260504002636 73 179 0.0 0.0 0.00 0.00 0.00 20 1014.6
20260504002134 72 228 0.0 0.0 0.00 0.00 0.00 20 1014.5
20260504001631 72 232 0.0 0.0 0.00 0.00 0.00 25 1014.7
20260504001127 72 153 0.0 0.0 0.00 0.00 0.00 28 1014.8
20260504000625 71 175 0.0 0.0 0.00 0.00 0.00 22 1014.7
20260504000122 70 212 0.0 0.0 0.00 0.00 0.00 20 1014.9
20260503235620 69 185 0.0 0.0 0.00 0.00 0.00 25 1014.6
20260503235116 67 164 0.0 0.0 0.00 0.00 0.00 26 1014.7
20260503234614 67 38 0.0 1.0 0.00 0.00 0.00 24 1014.9
20260503234112 67 104 1.0 1.0 0.00 0.00 0.00 24 1015.1
20260503233609 68 118 0.0 0.0 0.00 0.00 0.00 25 1015.1
20260503233104 69 107 1.0 1.0 0.00 0.00 0.00 22 1014.9
20260503232601 69 142 0.0 0.0 0.00 0.00 0.00 26 1015.2
20260503232059 67 140 0.0 0.0 0.00 0.00 0.00 35 1015.2
20260503231556 68 159 0.0 0.0 0.00 0.00 0.00 34 1015.3
20260503231053 68 113 0.0 1.0 0.00 0.00 0.00 27 1015.3
20260503230549 68 141 0.0 0.0 0.00 0.00 0.00 26 1015.2
20260503230047 68 255 0.0 0.0 0.00 0.00 0.00 27 1015.4
20260503225544 69 129 0.0 0.0 0.00 0.00 0.00 27 1015.1
20260503225039 70 53 0.0 0.0 0.00 0.00 0.00 28 1015.1
20260503224537 71 146 0.0 1.0 0.00 0.00 0.00 24 1015.6
20260503224035 72 177 1.0 1.0 0.00 0.00 0.00 22 1015.7
20260503223533 70 283 0.0 1.0 0.00 0.00 0.00 27 1015.7
20260503223028 70 126 0.0 0.0 0.00 0.00 0.00 24 1015.7
20260503222526 70 196 0.0 1.0 0.00 0.00 0.00 24 1015.4
20260503222024 71 200 1.0 1.0 0.00 0.00 0.00 26 1015.9
20260503221522 73 198 1.0 2.0 0.00 0.00 0.00 23 1015.8
20260503221019 71 268 0.0 0.0 0.00 0.00 0.00 27 1015.7
20260503220515 71 67 0.0 1.0 0.00 0.00 0.00 23 1016.4
20260503220012 73 165 2.0 3.0 0.00 0.00 0.00 21 1016.4
20260503215509 74 0 2.0 2.0 0.00 0.00 0.00 21 1016.3
20260503215006 73 279 1.0 2.0 0.00 0.00 0.00 27 1016.4
20260503214504 73 111 1.0 2.0 0.00 0.00 0.00 25 1016.3
20260503214001 73 233 0.0 0.0 0.00 0.00 0.00 22 1016.7
20260503213459 73 271 0.0 1.0 0.00 0.00 0.00 22 1016.9
20260503212955 71 163 1.0 2.0 0.00 0.00 0.00 26 1016.8
20260503212452 69 95 1.0 1.0 0.00 0.00 0.00 29 1016.9
20260503211949 66 175 1.0 1.0 0.00 0.00 0.00 27 1017.0
20260503211446 67 59 3.0 5.0 0.00 0.00 0.00 25 1017.3
20260503210937 66 77 1.0 2.0 0.00 0.00 0.00 26 1017.3
20260503210433 67 81 2.0 3.0 0.00 0.00 0.00 26 1017.1
20260503205928 69 107 1.0 2.0 0.00 0.00 0.00 28 1017.4
20260503205426 66 140 0.0 0.0 0.00 0.00 0.00 29 1017.5
20260503204921 66 5 1.0 2.0 0.00 0.00 0.00 27 1017.4